     2              OBSERVATION DATA    GPS                 RINEX VERSION / TYPE
teqc 1997Jul24 19970902 20:59:44UTC                         PGM / RUN BY / DATE
                                                            COMMENT
BIT 2 OF LLI FLAGS DATA COLLECTED UNDER A-S CONDITION       COMMENT
BIT 2 OF LLI FLAGS DATA COLLECTED UNDER A-S CONDITION       COMMENT
Original Marker Name: -----.5113                            COMMENT
Campaign Name: Salt. Tr. Crust. Monit. May-Jun 1986         COMMENT
4-Character Station Name: 5113                              COMMENT
6-Character Antenna Code: TI4100                            COMMENT
Vertical Measurement Point: PAE                             COMMENT
Vertical Offset to Rinex Ref. Point: 0.0000                 COMMENT
Radial Measurement Point: RRP                               COMMENT
Radial Offset to Rinex Ref. Point: 0.0000                   COMMENT
Antenna Height from Field Measurement: 1.4070 m             COMMENT
Original XYZ: -2458594.1346 -4763438.8713 3444652.2603      COMMENT
New XYZ position is based on association with SCEC monument COMMENT
E1C8P4W3+0011. Position of that monument is believed to be  COMMENT
valid to within 1 m horizontally; vertical accuracy         COMMENT
should be no worse than 3-times this value.                 COMMENT
                                                            COMMENT
Revised Rinex header created by UCSD GPS archive for        COMMENT
GSAC on 01-Jun-1999 (1999:152) 22:59:08 GMT                 COMMENT
For assistance contact dagnew@ucsd.edu or hjohnson@ucsd.edu COMMENT
                                                            COMMENT
51134 DOPPLER                                               MARKER NAME
5 NATIONAL GEODETIC SURVEY                                  OBSERVER / AGENCY
UT-16 TI 4100 1.0                                           REC # / TYPE / VERS
4011 TI 4100                                                ANT # / TYPE
 -2455455.0000 -4767433.0000  3441461.0000                  APPROX POSITION XYZ
        1.4070        0.0000        0.0000                  ANTENNA: DELTA H/E/N
     1     1     0                                          WAVELENGTH FACT L1/2
     4    P1    P2    L1    L2                              # / TYPES OF OBSERV
     6                                                      INTERVAL
  1986     6    20     4     4   11.000000                  TIME OF FIRST OBS
  1986     6    20     4    23   59.000000                  TIME OF LAST OBS
     0                                                      # OF SATELLITES
                                                            END OF HEADER
 86  6 20  4  4 11.0800000  0  3G12G13G 7
  21637280.444    21637282.501    45274972.204 9 -61580786.728 8
  22295960.148    22295961.854    74733816.568 9 -82954286.304 8
  23351161.400    23351139.393    15125049.136 9 -39281345.989 9
 86  6 20  4  7 17.0800000  0  3G12G13G 7
  21721757.972    21721761.938    45718909.050 9 -61234862.034 9
  22354937.820    22354940.405    75043744.994 9 -82712783.609 8
  23329462.961    23329464.215    14912597.894 9 -39370100.349 9
 86  6 20  4  7 23.0800000  0  3G12G13G 7
  21724544.008    21724545.718    45733539.307 8 -61223461.841 9
  22356843.961    22356846.111    75053760.192 9 -82704979.560 8
  23328850.147    23328851.249    14909378.358 9 -39372609.090 9
 86  6 20  4  7 29.0800000  0  3G12G13G 7
  21727330.417    21727333.263    45748188.622 9 -61212046.786 8
  22358750.686    22358752.279    75063776.534 9 -82697174.617 8
  23328242.636    23328245.016    14906190.327 9 -39375093.263 9
 86  6 20  4  7 35.0800000  0  3G12G13G 7
  21730122.322    21730124.417    45762857.050 8 -61200616.845 8
  22360656.436    22360657.632    75073793.930 9 -82689368.848 8
  23327641.484    23327645.099    14903029.056 9 -39377556.580 9
 86  6 20  4  7 41.0800000  0  3G12G13G 7
  21732917.547    21732919.710    45777544.590 9 -61189172.003 8
  22362563.318    22362563.693    75083812.461 9 -82681562.201 9
  23327046.156    23327046.523    14899891.813 9 -39380001.189 8
 86  6 20  4  7 47.0800000  0  3G12G13G 7
  21735716.212    21735717.914    45792251.051 9 -61177712.420 9
  22364470.756    22364471.500    75093831.964 9 -82673754.796 8
  23326454.151    23326453.607    14896775.784 9 -39382429.260 8
 86  6 20  4  7 53.0800000  0  3G12G13G 7
  21738518.473    21738520.169    45806976.547 9 -61166238.012 8
  22366377.280    22366377.922    75103852.533 9 -82665946.555 9
  23325865.013    23325865.775    14893680.142 9 -39384841.449 9
 86  6 20  4  7 59.0800000  0  3G12G13G 7
  21741324.786    21741325.424    45821721.047 9 -61154748.793 9
  22368283.887    22368284.670    75113874.120 9 -82658137.529 9
  23325279.653    23325279.380    14890606.209 9 -39387236.728 8
 86  6 20  4  8  5.0800000  0  3G12G13G 7
  21744133.811    21744134.932    45836484.453 9 -61143244.833 8
  22370191.199    22370192.430    75123896.686 9 -82650327.734 9
                  23324699.515                   -39389610.799 8
 86  6 20  4  8 11.0800000  0  3G12G13G 7
  21746946.988    21746948.736    45851266.865 9 -61131726.066 9
  22372098.075    22372099.844    75133920.320 9 -82642517.108 8
  23324125.032    23324125.171    14851134.758 8 -39391958.410 8
 86  6 20  4  8 17.0800000  0  3G12G13G 7
  21749763.734    21749764.752    45866068.129 9 -61120192.616 8
  22374006.730    22374008.165    75143945.034 8 -82634705.647 8
  23323559.309    23323559.426    14848159.526 9 -39394276.762 9
 86  6 20  4  8 23.0800000  0  3G12G13G 7
  21752583.640    21752585.241    45880888.355 9 -61108644.392 8
  22375914.251    22375916.010    75153970.936 9 -82626893.267 8
  23322998.680    23323000.835    14845220.096 9 -39396567.207 8
 86  6 20  4  8 29.0800000  0  3G12G13G 7
  21755406.911    21755408.719    45895727.426 9 -61097081.474 9
  22377822.754    22377824.057    75163997.829 9 -82619080.097 8
  23322445.806    23322445.673    14842311.754 9 -39398833.443 9
 86  6 20  4  8 35.0800000  0  3G12G13G 7
  21758234.280    21758236.227    45910585.413 9 -61085503.827 8
  22379729.572    22379732.301    75174025.862 9 -82611266.043 9
  23321897.959    23321897.494    14839430.209 9 -39401078.799 8
 86  6 20  4  8 41.0800000  0  3G12G13G 7
  21761065.360    21761067.060    45925462.150 9 -61073911.563 9
  22381639.832    22381640.297    75184054.896 9 -82603451.210 8
  23321355.019    23321352.619    14836572.076 9 -39403305.911 8
 86  6 20  4  8 47.0800000  0  3G12G13G 7
  21763898.621    21763902.050    45940357.732 8 -61062304.624 8
  22383547.690    22383549.240    75194085.030 9 -82595635.529 9
  23320815.362    23320814.226    14833735.364 9 -39405516.341 8
 86  6 20  4  8 53.0800000  0  3G12G13G 7
  21766736.065    21766739.776    45955272.065 9 -61050683.070 9
  22385457.361    22385457.847    75204116.196 9 -82587819.028 8
  23320279.423    23320278.090    14830918.951 8 -39407710.947 8
 86  6 20  4  8 59.0800000  0  3G12G13G 7
  21769578.111    21769579.905    45970205.146 9 -61039046.912 8
  22387365.906    22387367.018    75214148.346 9 -82580001.767 8
  23319747.597    23319746.010    14828124.430 9 -39409888.498 9
 86  6 20  4  9  5.0800000  0  3G12G13G 7
  21772422.327    21772426.935    45985157.043 8 -61027396.105 8
  22389274.777    22389276.514    75224181.450 9 -82572183.764 9
                  23319220.313                   -39412044.563 8
 86  6 20  4  9 11.0800000  0  3G12G13G 7
  21775271.902    21775275.069    46000127.478 9 -61015730.830 8
  22391183.400    22391185.196    75234215.565 9 -82564364.982 9
  23318700.538    23318701.155    14788933.069 9 -39414173.723 9
 86  6 20  4  9 17.0800000  0  3G12G13G 7
  21778123.180    21778127.137    46015116.666 8 -61004050.946 8
  22393093.481    22393094.959    75244250.757 9 -82556545.354 9
  23318187.320    23318189.731    14786238.520 9 -39416273.363 9
 86  6 20  4  9 23.0800000  0  3G12G13G 7
  21780979.681    21780983.268    46030124.516 8 -60992356.523 8
  22395002.403    22395004.606    75254286.877 9 -82548724.992 8
  23317680.683    23317683.202    14783579.345 9 -39418345.453 9
 86  6 20  4  9 29.0800000  0  3G12G13G 7
  21783838.752    21783842.338    46045151.119 9 -60980647.494 8
  22396912.867    22396914.806    75264324.077 9 -82540903.808 8
  23317181.009    23317183.383    14780951.147 9 -39420393.399 9
 86  6 20  4  9 35.0800000  0  3G12G13G 7
  21786702.526    21786705.578    46060196.240 8 -60968924.024 8
  22398823.105    22398823.595    75274362.207 9 -82533081.880 8
  23316685.445    23316690.180    14778349.364 9 -39422420.761 9
 86  6 20  4  9 41.0800000  0  3G12G13G 7
  21789569.381    21789570.880    46075259.979 9 -60957186.046 8
  22400734.304    22400735.800    75284401.431 9 -82525259.113 9
  23316194.117    23316197.754    14775771.143 9 -39424429.755 9
 86  6 20  4  9 47.0800000  0  3G12G13G 7
  21792440.046    21792442.547    46090342.250 8 -60945433.624 8
  22402644.975    22402646.269    75294441.669 9 -82517435.555 8
  23315709.132    23315711.632    14773214.379 9 -39426422.039 9
 86  6 20  4  9 53.0800000  0  3G12G13G 7
  21795313.023    21795317.182    46105443.062 8 -60933666.763 8
  22404555.545    22404556.478    75304482.869 9 -82509611.229 8
  23315225.176    23315228.238    14770677.978 9 -39428398.446 9
 86  6 20  4  9 59.0800000  0  3G12G13G 7
  21798190.544    21798193.247    46120562.358 9 -60921885.493 8
  22406467.097    22406468.024    75314525.178 9 -82501786.076 8
  23314748.446    23314749.723    14768163.634 9 -39430357.674 9
 86  6 20  4 10  5.0800000  0  3G12G13G 7
  21801071.544    21801073.483    46135700.038 9 -60910089.904 9
  22408378.136    22408378.331    75324568.461 9 -82493960.118 9
                  23314275.426                   -39432295.134 8
 86  6 20  4 10 11.0800000  0  3G12G13G 7
  21803956.059    21803957.705    46150856.261 9 -60898279.852 8
  22410288.913    22410290.372    75334612.768 9 -82486133.394 9
  23313807.140    23313808.471    14729247.869 9 -39434205.278 9
 86  6 20  4 10 17.0800000  0  3G12G13G 7
  21806842.522    21806846.146    46166030.865 9 -60886455.487 8
  22412201.233    22412201.479    75344657.986 9 -82478305.943 8
  23313348.232    23313349.251    14726834.280 9 -39436085.983 9
 86  6 20  4 10 23.0800000  0  3G12G13G 7
  21809735.476    21809736.374    46181223.960 9 -60874616.707 8
  22414113.079    22414113.732    75354704.268 9 -82470477.681 8
  23312895.367    23312895.448    14724455.909 9 -39437939.259 9
 86  6 20  4 10 29.0800000  0  3G12G13G 7
  21812629.837    21812631.937    46196435.359 9 -60862763.684 9
  22416023.889    22416025.259    75364751.518 9 -82462648.651 9
  23312449.721    23312449.049    14722108.173 9 -39439768.655 8
 86  6 20  4 10 35.0800000  0  3G12G13G 7
  21815528.444    21815528.964    46211665.147 9 -60850896.316 8
  22417936.579    22417937.844    75374799.753 9 -82454818.856 8
  23312007.902    23312006.861    14719786.717 9 -39441577.575 9
 86  6 20  4 10 41.0800000  0  3G12G13G 7
  21818429.158    21818430.521    46226913.264 9 -60839014.673 8
  22419847.312    22419849.151    75384849.045 9 -82446988.238 9
  23311570.559    23311570.603    14717488.606 9 -39443368.307 9
 86  6 20  4 10 47.0800000  0  3G12G13G 7
  21821334.303    21821335.854    46242179.607 9 -60827118.822 8
  22421759.357    22421762.594    75394899.277 9 -82439156.902 9
  23311138.465    23311138.357    14715211.739 9 -39445142.481 8
 86  6 20  4 10 53.0800000  0  3G12G13G 7
  21824243.026    21824245.126    46257464.276 9 -60815208.693 8
  22423671.523    22423675.370    75404950.543 9 -82431324.740 8
  23310709.661    23310708.611    14712955.227 9 -39446900.802 8
 86  6 20  4 10 59.0800000  0  3G12G13G 7
  21827154.971    21827156.442    46272767.170 9 -60803284.365 8
  22425584.918    22425588.395    75415002.708 9 -82423491.889 9
  23310284.144    23310282.649    14710721.126 9 -39448641.664 9
 86  6 20  4 11  5.0800000  0  3G12G13G 7
  21830070.236    21830072.173    46288088.402 9 -60791345.752 9
  22427498.964    22427500.602    75425055.935 8 -82415658.202 7
                  23309862.770                   -39450360.267 8
 86  6 20  4 11 11.0800000  0  3G12G13G 7
  21832988.524    21832990.687    46303427.787 9 -60779392.969 8
  22429413.450    22429415.047    75435110.120 9 -82407823.774 8
  23309449.710    23309452.875    14672086.900 9 -39452051.324 9
 86  6 20  4 11 17.0800000  0  3G12G13G 7
  21835910.667    21835912.951    46318785.413 9 -60767425.993 8
  22431326.664    22431327.576    75445165.310 8 -82399988.550 9
  23309044.320    23309045.824    14669954.518 9 -39453712.923 8
 86  6 20  4 11 23.0800000  0  3G12G13G 7
  21838836.897    21838838.973    46334161.133 9 -60755444.911 7
  22433240.119    22433241.638    75455221.474 9 -82392152.580 8
  23308645.778    23308646.174    14667856.517 8 -39455347.351 9
 86  6 20  4 11 29.0800000  0  3G12G13G 7
  21841765.823    21841768.007    46349555.048 8 -60743449.656 8
  22435154.335    22435155.379    75465278.524 9 -82384315.915 8
  23308252.413    23308252.637    14665789.262 9 -39456958.194 8
 86  6 20  4 11 35.0800000  0  3G12G13G 7
  21844699.428    21844701.060    46364967.062 9 -60731440.295 8
  22437067.989    22437069.166    75475336.531 9 -82376478.510 9
  23307864.587    23307866.255    14663748.141 9 -39458548.678 9
 86  6 20  4 11 41.0800000  0  3G12G13G 7
  21847636.040    21847638.431    46380397.132 9 -60719416.865 9
  22438982.053    22438983.490    75485395.539 9 -82368640.328 8
  23307479.787    23307481.167    14661730.329 9 -39460120.993 8
 86  6 20  4 11 47.0800000  0  3G12G13G 7
  21850574.566    21850576.664    46395845.304 9 -60707379.336 9
  22440897.210    22440898.145    75495455.606 9 -82360801.305 8
  23307099.779    23307101.264    14659733.775 9 -39461676.755 8
 86  6 20  4 11 53.0800000  0  3G12G13G 7
  21853518.253    21853520.604    46411311.457 9 -60695327.786 9
  22442810.807    22442811.770    75505516.560 9 -82352961.598 8
  23306723.624    23306724.022    14657757.520 9 -39463216.674 9
 86  6 20  4 11 59.0800000  0  3G12G13G 7
  21856465.956    21856467.460    46426795.618 9 -60683262.210 8
  22444725.311    22444726.148    75515578.530 9 -82345121.100 8
  23306351.231    23306353.787    14655803.938 9 -39464738.947 9
 86  6 20  4 12  5.0800000  0  3G12G13G 7
  21859415.618    21859417.365    46442297.737 8 -60671182.629 8
  22446640.914    22446641.741    75525641.438 9 -82337279.872 8
                  23305987.022                   -39466238.562 9
 86  6 20  4 12 11.0800000  0  3G12G13G 7
  21862368.419    21862370.762    46457817.873 9 -60659089.034 9
  22448555.875    22448555.833    75535705.309 9 -82329437.898 8
  23305625.455    23305627.289    14617449.607 8 -39467710.361 8
 86  6 20  4 12 17.0800000  0  3G12G13G 7
  21865325.932    21865327.993    46473356.007 9 -60646981.407 8
  22450472.578    22450472.195    75545770.074 9 -82321595.223 7
  23305272.702    23305275.298    14615598.398 9 -39469152.852 9
 86  6 20  4 12 23.0800000  0  3G12G13G 7
  21868286.068    21868287.932    46488912.063 9 -60634859.809 9
  22452387.745    22452386.612    75555835.878 9 -82313751.737 8
  23304927.770    23304929.817    14613781.921 9 -39470568.288 9
 86  6 20  4 12 29.0800000  0  3G12G13G 7
  21871250.457    21871252.436    46504486.095 9 -60622724.202 9
  22454302.586    22454302.596    75565902.730 9 -82305907.437 8
  23304588.506    23304588.760    14611995.675 9 -39471960.156 8
 86  6 20  4 12 35.0800000  0  3G12G13G 7
  21874218.053    21874218.977    46520077.938 9 -60610574.720 8
  22456218.391    22456217.651    75575970.480 9 -82298062.442 8
  23304254.108    23304253.588    14610235.211 8 -39473331.941 9
 86  6 20  4 12 41.0800000  0  3G12G13G 7
  21877188.428    21877188.764    46535687.689 9 -60598411.277 9
  22458135.021    22458134.921    75586039.293 9 -82290216.601 9
  23303923.495    23303922.234    14608498.037 9 -39474685.585 9
 86  6 20  4 12 47.0800000  0  3G12G13G 7
  21880161.452    21880163.195    46551315.176 9 -60586234.014 8
  22460049.967    22460050.893    75596109.031 9 -82282370.069 8
  23303597.103    23303597.277    14606781.829 9 -39476022.895 9
 86  6 20  4 12 53.0800000  0  3G12G13G 7
  21883138.337    21883141.053    46566960.573 9 -60574042.807 8
  22461965.565    22461966.637    75606179.704 9 -82274522.800 8
  23303273.195    23303274.691    14605086.153 9 -39477344.201 8
 86  6 20  4 12 59.0800000  0  3G12G13G 7
  21886118.445    21886120.950    46582623.680 9 -60561837.780 9
  22463883.376    22463884.659    75616251.238 9 -82266674.853 8
  23302955.364    23302955.516    14603413.423 9 -39478647.629 7
 86  6 20  4 13  5.0800000  0  3G12G13G 7
  21889101.854    21889104.592    46598304.535 8 -60549618.946 8
  22465799.731    22465801.194    75626323.837 9 -82258826.070 8
                  23302642.826                   -39479928.048 8
 86  6 20  4 13 11.0800000  0  3G12G13G 7
  21892089.881    21892091.374    46614003.072 9 -60537386.325 8
  22467716.452    22467717.748    75636397.387 9 -82250976.548 9
  23302336.755    23302337.276    14565335.354 9 -39481180.543 8
 86  6 20  4 13 17.0800000  0  3G12G13G 7
  21895079.994    21895082.212    46629719.316 9 -60525139.910 9
  22469634.564    22469634.788    75646471.768 9 -82243126.377 8
  23302037.327    23302038.086    14563765.648 9 -39482403.704 9
 86  6 20  4 13 23.0800000  0  3G12G13G 7
  21898074.192    21898077.052    46645453.324 9 -60512879.653 9
  22471551.143    22471552.584    75656547.221 9 -82235275.382 8
  23301744.600    23301746.098    14562230.908 9 -39483599.992 9
 86  6 20  4 13 29.0800000  0  3G12G13G 7
  21901072.264    21901073.883    46661204.913 9 -60500605.690 8
  22473468.694    22473470.406    75666623.513 9 -82227423.716 9
  23301457.773    23301461.473    14560725.618 9 -39484772.954 9
 86  6 20  4 13 35.0800000  0  3G12G13G 7
  21904072.785    21904074.750    46676974.218 9 -60488317.930 8
  22475387.792    22475387.542    75676700.904 9 -82219571.204 8
  23301176.215    23301179.301    14559246.135 9 -39485925.793 8
 86  6 20  4 13 41.0800000  0  3G12G13G 7
  21907076.665    21907079.173    46692761.064 9 -60476016.482 9
  22477304.317    22477305.622    75686779.251 9 -82211717.950 7
  23300899.212    23300902.304    14557789.676 9 -39487060.700 9
 86  6 20  4 13 47.0800000  0  3G12G13G 7
  21910084.733    21910086.189    46708565.484 9 -60463701.348 9
  22479222.363    22479222.796    75696858.554 9 -82203863.941 8
  23300626.151    23300629.090    14556354.209 9 -39488179.240 9
 86  6 20  4 13 53.0800000  0  3G12G13G 7
  21913095.464    21913097.244    46724387.385 9 -60451372.589 9
  22481141.350    22481141.841    75706938.816 9 -82196009.193 8
  23300357.097    23300358.258    14554939.350 9 -39489281.720 9
 86  6 20  4 13 59.0800000  0  3G12G13G 7
  21916109.467    21916111.483    46740226.728 9 -60439030.239 8
  22483058.862    22483059.501    75717019.922 9 -82188153.782 7
  23300093.566    23300093.835    14553547.821 9 -39490366.029 9
 86  6 20  4 14  5.0800000  0  3G12G13G 7
  21919126.920    21919129.594    46756083.635 9 -60426674.222 7
  22484977.778    22484979.937    75727101.937 9 -82180297.666 9
                  23299835.057                   -39491426.958 9
 86  6 20  4 14 11.0800000  0  3G12G13G 7
  21922148.086    21922150.150    46771957.959 9 -60414304.614 8
  22486897.323    22486897.361    75737184.821 9 -82172440.871 8
  23299583.187    23299583.007    14515752.018 9 -39492459.643 8
 86  6 20  4 14 17.0800000  0  3G12G13G 7
  21925172.627    21925173.454    46787849.823 9 -60401921.343 9
  22488816.095    22488816.747    75747268.752 9 -82164583.262 9
  23299336.376    23299339.266    14514464.346 9 -39493463.014 9
 86  6 20  4 14 23.0800000  0  3G12G13G 7
  21928200.006    21928201.605    46803759.042 9 -60389524.554 9
  22490733.923    22490735.744    75757353.564 9 -82156724.976 9
  23299097.566    23299099.709    14513210.766 9 -39494439.824 8
 86  6 20  4 14 29.0800000  0  3G12G13G 7
  21931231.190    21931232.631    46819685.728 9 -60377114.154 7
  22492653.816    22492655.056    75767439.296 9 -82148865.960 8
  23298865.861    23298867.019    14511986.835 9 -39495393.530 8
 86  6 20  4 14 35.0800000  0  3G12G13G 7
  21934265.339    21934266.512    46835629.779 9 -60364690.215 9
  22494573.890    22494574.536    75777525.935 9 -82141006.240 9
  23298636.917    23298638.232    14510788.466 9 -39496327.324 9
 86  6 20  4 14 41.0800000  0  3G12G13G 7
  21937301.887    21937303.355    46851591.269 9 -60352252.697 9
  22496492.843    22496494.401    75787613.564 9 -82133145.750 8
  23298412.635    23298414.956    14509613.141 9 -39497243.165 8
 86  6 20  4 14 47.0800000  0  3G12G13G 7
  21940342.418    21940344.304    46867570.096 9 -60339801.663 8
  22498411.826    22498413.961    75797702.093 9 -82125284.560 9
  23298193.556    23298194.808    14508458.860 9 -39498142.596 9
 86  6 20  4 14 53.0800000  0  3G12G13G 7
  21943386.454    21943387.382    46883566.117 9 -60327337.234 8
  22500332.966    22500332.205    75807791.456 9 -82117422.705 9
  23297977.362    23297978.156    14507325.087 9 -39499026.059 8
 86  6 20  4 14 59.0800000  0  3G12G13G 7
  21946433.899    21946435.845    46899579.452 9 -60314859.315 8
  22502251.591    22502253.384    75817881.855 9 -82109560.064 8
  23297766.475    23297767.684    14506214.869 9 -39499891.180 9
 86  6 20  4 15  5.0800000  0  3G12G13G 7
  21949483.202    21949485.575    46915609.997 9 -60302367.974 8
  22504172.639    22504173.878    75827973.151 9 -82101696.728 9
                  23297560.982                   -39500732.558 9
 86  6 20  4 15 11.0800000  0  3G12G13G 7
  21952537.928    21952540.355    46931657.786 9 -60289863.206 9
  22506093.857    22506093.952    75838065.419 9 -82093832.622 8
  23297363.299    23297364.359    14468699.919 9 -39501545.425 9
 86  6 20  4 15 17.0800000  0  3G12G13G 7
  21955595.633    21955596.267    46947722.665 9 -60277345.119 8
  22508012.401    22508013.549    75848158.534 9 -82085967.854 8
  23297171.371    23297172.098    14467694.185 9 -39502329.119 9
 86  6 20  4 15 23.0800000  0  3G12G13G 7
  21958655.835    21958657.130    46963804.783 9 -60264813.600 9
  22509933.887    22509933.661    75858252.558 9 -82078102.378 8
  23296986.694    23296987.678    14466722.475 9 -39503086.292 9
 86  6 20  4 15 29.0800000  0  3G12G13G 7
  21961719.799    21961720.793    46979904.008 9 -60252268.745 8
  22511856.880    22511855.787    75868347.457 9 -82070236.222 9
  23296808.254    23296808.028    14465779.983 9 -39503820.707 9
 86  6 20  4 15 35.0800000  0  3G12G13G 7
  21964785.928    21964786.951    46996020.365 9 -60239710.546 8
  22513776.749    22513776.431    75878443.307 9 -82062369.322 8
  23296633.408    23296634.618    14464862.865 9 -39504535.348 9
 86  6 20  4 15 41.0800000  0  3G12G13G 7
  21967856.437    21967856.616    47012153.798 9 -60227139.028 8
  22515697.557    22515697.920    75888540.052 9 -82054501.726 8
  23296462.816    23296463.835    14463968.598 9 -39505232.180 8
 86  6 20  4 15 47.0800000  0  3G12G13G 7
  21970928.935    21970930.578    47028304.295 9 -60214554.229 9
  22517619.211    22517619.978    75898637.644 9 -82046633.466 8
  23296296.856    23296298.026    14463095.212 9 -39505912.743 9
 86  6 20  4 15 53.0800000  0  3G12G13G 7
  21974006.044    21974007.206    47044471.932 9 -60201956.063 9
  22519541.632    22519542.189    75908736.169 9 -82038764.482 9
  23296133.486    23296134.953    14462242.477 9 -39506577.214 8
 86  6 20  4 15 59.0800000  0  3G12G13G 7
  21977085.259    21977087.397    47060656.522 9 -60189344.701 8
  22521462.055    22521465.450    75918835.563 9 -82030894.836 9
  23295975.976    23295976.155    14461413.627 9 -39507223.069 9
 86  6 20  4 16  5.0800000  0  3G12G13G 7
  21980169.252    21980170.027    47076858.093 9 -60176720.095 9
  22523383.531    22523387.470    75928935.905 9 -82023024.432 8
                  23295824.954                   -39507844.903 8
 86  6 20  4 16 11.0800000  0  3G12G13G 7
  21983255.783    21983256.360    47093076.605 9 -60164082.302 9
  22525306.695    22525308.765    75939037.164 9 -82015153.331 9
  23295678.217    23295678.390    14424177.388 9 -39508438.067 9
 86  6 20  4 16 17.0800000  0  3G12G13G 7
  21986344.575    21986346.406    47109312.145 9 -60151431.238 9
  22527229.335    22527231.578    75949139.449 8 -82007281.418 9
  23295540.511    23295542.340    14423453.559 9 -39509002.076 9
 86  6 20  4 16 23.0800000  0  3G12G13G 7
  21989437.587    21989439.043    47125564.508 9 -60138767.062 9
  22529151.667    22529154.608    75959242.550 9 -81999408.876 9
  23295410.809    23295411.223    14422763.447 9 -39509539.827 9
 86  6 20  4 16 29.0800000  0  3G12G13G 7
  21992534.141    21992534.653    47141833.797 9 -60126089.700 8
  22531075.274    22531076.533    75969346.544 9 -81991535.637 8
  23295285.118    23295283.447    14422102.499 9 -39510054.845 8
 86  6 20  4 16 35.0800000  0  3G12G13G 7
  21995631.936    21995634.130    47158119.977 9 -60113399.175 9
  22532996.999    22532999.432    75979451.459 9 -81983661.672 9
  23295164.174    23295164.172    14421466.750 9 -39510550.246 9
 86  6 20  4 16 41.0800000  0  3G12G13G 7
  21998733.846    21998736.813    47174422.984 9 -60100695.553 8
  22534920.718    22534921.689    75989557.220 9 -81975787.052 8
  23295047.837    23295047.299    14420853.761 9 -39511027.888 9
 86  6 20  4 16 47.0800000  0  3G12G13G 7
  22001841.332    22001841.351    47190742.893 9 -60087978.736 9
  22536844.081    22536845.560    75999663.966 9 -81967911.658 8
  23294936.389    23294935.871    14420261.586 9 -39511489.319 8
 86  6 20  4 16 53.0800000  0  3G12G13G 7
  22004949.142    22004951.307    47207079.514 9 -60075248.906 9
  22538768.197    22538768.496    76009771.534 9 -81960035.627 8
  23294827.928    23294826.079    14419690.035 9 -39511934.686 9
 86  6 20  4 16 59.0800000  0  3G12G13G 7
  22008060.530    22008062.927    47223432.961 9 -60062505.968 9
  22540692.187    22540692.596    76019880.113 9 -81952158.808 9
  23294722.493    23294724.193    14419142.850 9 -39512361.061 9
 86  6 20  4 17  5.0800000  0  3G12G13G 7
  22011174.944    22011178.275    47239803.132 9 -60049749.992 9
  22542613.403    22542616.125    76029989.524 9 -81944281.337 8
                  23294625.510                   -39512763.132 9
 86  6 20  4 17 11.0800000  0  3G12G13G 7
  22014294.247    22014295.557    47256190.087 9 -60036980.949 9
  22544537.974    22544541.693    76040099.957 9 -81936403.085 9
  23294531.811    23294537.018    14382182.012 9 -39513135.764 9
 86  6 20  4 17 17.0800000  0  3G12G13G 7
  22017415.645    22017417.904    47272593.754 9 -60024198.872 8
  22546463.079    22546464.276    76050211.338 8 -81928524.082 9
  23294447.235    23294450.271    14381740.354 9 -39513479.922 8
 86  6 20  4 17 23.0800000  0  3G12G13G 7
  22020539.774    22020542.508    47289013.957 9 -60011403.911 9
  22548386.755    22548388.747    76060323.531 9 -81920644.449 9
  23294370.111    23294372.537    14381332.167 9 -39513798.488 8
 86  6 20  4 17 29.0800000  0  3G12G13G 7
  22023667.862    22023670.854    47305450.860 9 -59998595.925 9
  22550310.956    22550312.733    76070436.614 9 -81912764.116 8
  23294298.435    23294299.927    14380952.749 9 -39514094.146 8
 86  6 20  4 17 35.0800000  0  3G12G13G 7
  22026798.796    22026801.267    47321904.385 9 -59985775.010 9
  22552236.547    22552237.329    76080550.621 9 -81904883.076 9
  23294230.961    23294232.096    14380598.457 9 -39514370.222 9
 86  6 20  4 17 41.0800000  0  3G12G13G 7
  22029932.782    22029936.301    47338374.547 9 -59972941.115 9
  22554161.229    22554161.820    76090665.556 9 -81897001.304 8
  23294167.305    23294169.445    14380266.690 9 -39514628.746 9
 86  6 20  4 17 47.0800000  0  3G12G13G 7
  22033070.066    22033072.266    47354861.241 8 -59960094.343 9
  22556085.849    22556086.016    76100781.357 9 -81889118.859 8
  23294108.477    23294109.260    14379955.626 8 -39514871.129 9
 86  6 20  4 17 53.0800000  0  3G12G13G 7
  22036209.662    22036212.848    47371364.422 9 -59947234.731 8
  22558011.275    22558012.041    76110898.035 9 -81881235.761 8
  23294054.690    23294055.195    14379665.428 9 -39515097.246 8
 86  6 20  4 17 59.0800000  0  3G12G13G 7
  22039353.171    22039356.230    47387883.993 9 -59934362.334 9
  22559936.948    22559937.335    76121015.548 9 -81873351.977 9
                  23294004.882                   -39515304.259 9
 86  6 20  4 18  5.0800000  0  3G12G13G 7
  22042500.525    22042502.711    47404420.020 9 -59921477.129 9
  22561862.113    22561863.447    76131133.935 8 -81865467.524 9
  23293973.828    23293959.189    14342925.759 9 -39515486.630 8
 86  6 20  4 18 11.0800000  0  3G12G13G 7
  22045649.853    22045653.954    47420972.464 8 -59908579.120 9
  22563787.714    22563789.494    76141253.222 9 -81857582.366 8
  23293921.768    23293921.053    14342728.839 9 -39515640.031 8
 86  6 20  4 18 17.0800000  0  3G12G13G 7
  22048804.398    22048806.097    47437541.286 9 -59895668.353 9
  22565714.069    22565714.498    76151373.331 9 -81849696.561 8
  23293891.435    23293890.082    14342568.965 9 -39515764.612 8
 86  6 20  4 18 23.0800000  0  3G12G13G 7
  22051959.645    22051963.499    47454126.592 8 -59882744.737 9
  22567639.454    22567641.127    76161494.410 9 -81841810.012 9
  23293866.011    23293865.608    14342442.479 9 -39515863.172 8
 86  6 20  4 18 29.0800000  0  3G12G13G 7
  22055119.194    22055122.249    47470728.318 8 -59869808.331 8
  22569566.495    22569566.696    76171616.345 9 -81833922.781 9
  23293847.553    23293847.757    14342344.452 9 -39515939.555 8
 86  6 20  4 18 35.0800000  0  3G12G13G 7
  22058281.695    22058283.914    47487346.288 8 -59856859.280 9
  22571492.160    22571491.998    76181739.115 9 -81826034.899 9
  23293833.006    23293835.398    14342271.285 9 -39515996.574 8
 86  6 20  4 18 41.0800000  0  3G12G13G 7
  22061447.473    22061449.528    47503980.679 9 -59843897.416 9
  22573418.530    22573418.205    76191862.855 9 -81818146.259 8
  23293824.244    23293826.155    14342220.684 9 -39516036.006 9
 86  6 20  4 18 47.0800000  0  3G12G13G 7
  22064614.322    22064617.351    47520631.460 8 -59830922.788 9
  22575345.945    22575345.549    76201987.551 9 -81810256.889 9
  23293818.367    23293819.552    14342190.744 9 -39516059.337 9
 86  6 20  4 18 53.0800000  0  3G12G13G 7
  22067787.250    22067789.383    47537298.512 9 -59817935.474 9
  22577272.511    22577271.728    76212113.136 9 -81802366.834 9
  23293817.290    23293818.773    14342181.697 9 -39516066.394 8
 86  6 20  4 18 59.0800000  0  3G12G13G 7
  22070961.843    22070964.732    47553981.772 9 -59804935.540 8
  22579199.707    22579199.139    76222239.487 9 -81794476.160 8
                  23293821.924                   -39516054.154 8
 86  6 20  4 19  5.0800000  0  3G12G13G 7
  22074139.730    22074142.281    47570681.320 8 -59791922.909 9
  22581127.030    22581126.481    76232366.855 9 -81786584.703 8
  23293750.093    23293830.643    14305725.572 9 -39516017.036 8
 86  6 20  4 19 11.0800000  0  3G12G13G 7
  22077318.673    22077322.899    47587396.878 9 -59778897.801 8
  22583053.844    22583053.842    76242494.961 9 -81778692.687 9
  23293844.718    23293847.380    14305810.621 9 -39515950.750 9
 86  6 20  4 19 17.0800000  0  3G12G13G 7
  22080505.021    22080506.882    47604128.702 8 -59765860.015 9
  22584980.057    22584982.275    76252624.035 9 -81770799.894 9
  23293868.039    23293870.581    14305933.217 9 -39515855.617 8
 86  6 20  4 19 23.0800000  0  3G12G13G 7
  22083690.855    22083693.318    47620876.584 9 -59752809.723 8
  22586908.464    22586909.370    76262753.923 9 -81762906.489 9
  23293897.797    23293900.782    14306088.277 9 -39515734.784 8
 86  6 20  4 19 29.0800000  0  3G12G13G 7
  22086880.526    22086883.691    47637640.537 9 -59739746.903 8
  22588834.896    22588837.056    76272884.739 9 -81755012.349 8
  23293932.824    23293934.232    14306271.733 9 -39515591.831 9
 86  6 20  4 19 35.0800000  0  3G12G13G 7
  22090074.418    22090076.890    47654420.581 8 -59726671.557 9
  22590763.943    22590766.547    76283016.309 9 -81747117.622 9
  23293972.421    23293974.070    14306479.586 9 -39515429.863 8
 86  6 20  4 19 41.0800000  0  3G12G13G 7
  22093270.466    22093272.811    47671216.696 9 -59713583.663 8
  22592692.573    22592693.309    76293148.815 8 -81739222.170 9
  23294016.155    23294017.295    14306709.829 9 -39515250.458 9
 86  6 20  4 19 47.0800000  0  3G12G13G 7
  22096470.067    22096471.643    47688028.875 9 -59700483.272 9
  22594622.093    22594621.862    76303282.206 9 -81731326.005 9
  23294063.992    23294065.242    14306960.768 9 -39515054.912 9
 86  6 20  4 19 53.0800000  0  3G12G13G 7
  22099672.780    22099674.077    47704856.998 9 -59687370.444 8
  22596550.493    22596550.113    76313416.381 9 -81723429.239 9
  23294114.394    23294115.434    14307232.668 8 -39514843.039 9
 86  6 20  4 19 59.0800000  0  3G12G13G 7
  22102876.840    22102879.266    47721701.120 9 -59674245.157 8
  22598477.646    22598479.143    76323551.395 9 -81715531.823 9
  23294171.454    23294172.264    14307529.781 9 -39514611.517 8
 86  6 20  4 20  5.0800000  0  3G12G13G 7
  22106086.211    22106086.554    47738561.174 9 -59661107.448 9
  22600406.835    22600407.536    76333687.239 8 -81707633.749 9
                  23294234.275                   -39514354.727 8
 86  6 20  4 20 11.0800000  0  3G12G13G 7
  22109298.112    22109297.977    47755437.287 9 -59647957.225 8
  22602336.368    22602336.205    76343824.021 9 -81699734.954 8
  23294303.939    23294306.445    14271410.930 9 -39514068.669 8
 86  6 20  4 20 17.0800000  0  3G12G13G 7
  22112513.121    22112513.151    47772329.174 8 -59634794.722 8
  22604264.798    22604265.476    76353961.580 9 -81691835.567 9
  23294382.699    23294381.809    14271814.799 9 -39513753.960 9
 86  6 20  4 20 23.0800000  0  3G12G13G 7
  22115730.937    22115731.361    47789236.986 9 -59621619.788 8
  22606193.897    22606194.669    76364100.153 9 -81683935.380 9
  23294465.342    23294464.133    14272250.879 8 -39513413.777 9
 86  6 20  4 20 29.0800000  0  3G12G13G 7
  22118951.266    22118951.980    47806160.650 8 -59608432.534 9
  22608123.261    22608124.075    76374239.677 9 -81676034.456 8
  23294554.051    23294553.840    14272715.254 9 -39513051.935 8
 86  6 20  4 20 35.0800000  0  3G12G13G 7
  22122174.357    22122175.662    47823100.077 8 -59595232.980 8
  22610052.147    22610054.287    76384380.008 9 -81668132.903 8
  23294645.848    23294646.312    14273204.007 9 -39512671.088 9
 86  6 20  4 20 41.0800000  0  3G12G13G 7
  22125400.565    22125400.626    47840055.418 9 -59582021.033 9
  22611982.948    22611985.208    76394521.232 9 -81660230.651 8
  23294743.655    23294743.455    14273715.192 9 -39512272.773 9
 86  6 20  4 20 47.0800000  0  3G12G13G 7
  22128630.280    22128631.066    47857026.470 8 -59568796.839 9
  22613912.652    22613913.668    76404663.254 9 -81652327.773 9
  23294845.045    23294844.845    14274246.818 9 -39511858.510 8
 86  6 20  4 20 53.0800000  0  3G12G13G 7
  22131862.348    22131863.201    47874013.304 9 -59555560.349 8
  22615842.757    22615844.140    76414806.082 9 -81644424.265 9
  23294949.491    23294949.869    14274799.524 9 -39511427.835 8
 86  6 20  4 20 59.0800000  0  3G12G13G 7
  22135097.632    22135099.748    47891015.791 9 -59542311.658 8
  22617774.441    22617774.775    76424949.774 9 -81636520.091 8
                  23295061.152                   -39510977.276 9
 86  6 20  4 21  5.0800000  0  3G12G13G 7
  22138336.466    22138338.282    47908034.043 9 -59529050.691 9
  22619704.769    22619705.732    76435094.426 9 -81628615.166 9
  23295088.917    23295176.804    14238899.123 9 -39510501.190 8
 86  6 20  4 21 11.0800000  0  3G12G13G 7
  22141577.270    22141580.144    47925067.880 9 -59515777.551 9
  22621635.552    22621637.159    76445239.924 9 -81620709.567 9
  23295298.627    23295299.863    14239547.982 9 -39509995.668 8
 86  6 20  4 21 17.0800000  0  3G12G13G 7
  22144821.838    22144824.688    47942117.410 9 -59502492.214 9
  22623565.891    22623568.059    76455386.346 9 -81612803.278 9
  23295427.516    23295429.860    14240233.624 9 -39509461.797 8
 86  6 20  4 21 23.0800000  0  3G12G13G 7
  22148068.565    22148072.900    47959182.611 8 -59489194.653 9
  22625496.141    22625497.874    76465533.625 9 -81604896.295 9
  23295565.225    23295567.285    14240950.955 9 -39508902.846 8
 86  6 20  4 21 29.0800000  0  3G12G13G 7
  22151319.798    22151322.268    47976263.321 9 -59475885.011 9
  22627427.674    22627428.566    76475681.713 9 -81596988.707 8
  23295707.674    23295709.336    14241696.074 9 -39508322.235 9
 86  6 20  4 21 35.0800000  0  3G12G13G 7
  22154573.937    22154576.333    47993359.610 9 -59462563.221 9
  22629359.101    22629359.114    76485830.632 9 -81589080.448 8
  23295853.636    23295855.874    14242465.678 9 -39507722.543 9
 86  6 20  4 21 41.0800000  0  3G12G13G 7
  22157829.654    22157831.650    48010471.363 9 -59449229.391 9
  22631289.435    22631290.922    76495980.337 9 -81581171.598 8
  23296005.410    23296006.194    14243257.251 9 -39507105.723 8
 86  6 20  4 21 47.0800000  0  3G12G13G 7
  22161088.372    22161091.165    48027598.713 9 -59435883.404 8
  22633221.657    22633221.967    76506130.945 9 -81573262.024 9
  23296159.054    23296160.882    14244069.267 9 -39506472.990 8
 86  6 20  4 21 53.0800000  0  3G12G13G 7
  22164351.462    22164353.174    48044741.453 9 -59422525.419 9
  22635152.663    22635154.499    76516282.355 9 -81565351.837 8
  23296319.426    23296318.720    14244902.308 9 -39505823.862 9
 86  6 20  4 21 59.0800000  0  3G12G13G 7
  22167616.957    22167617.845    48061899.736 9 -59409155.323 9
  22637084.681    22637085.468    76526434.689 9 -81557440.922 8
                  23296482.747                   -39505154.291 8
 86  6 20  4 22  5.0800000  0  3G12G13G 7
  22170884.718    22170885.827    48079073.445 9 -59395773.209 9
  22639017.567    22639018.210    76536587.948 9 -81549529.283 8
  23296579.187    23296652.436    14209278.293 9 -39504459.079 8
 86  6 20  4 22 11.0800000  0  3G12G13G 7
  22174156.188    22174156.442    48096262.573 9 -59382379.083 9
  22640949.437    22640950.991    76546742.043 9 -81541617.018 8
  23296829.255    23296829.533    14210208.286 9 -39503734.372 9
 86  6 20  4 22 17.0800000  0  3G12G13G 7
  22177428.897    22177430.300    48113467.071 9 -59368972.974 8
  22642882.428    22642883.743    76556897.040 9 -81533704.037 8
  23297013.617    23297013.612    14211173.980 9 -39502981.483 9
 86  6 20  4 22 23.0800000  0  3G12G13G 7
  22180706.662    22180706.925    48130686.820 9 -59355554.987 8
  22644815.293    22644817.572    76567052.792 9 -81525790.465 9
  23297203.112    23297202.849    14212172.191 9 -39502203.663 9
 86  6 20  4 22 29.0800000  0  3G12G13G 7
  22183987.147    22183986.649    48147921.942 9 -59342125.033 9
  22646747.317    22646749.810    76577209.406 9 -81517876.219 8
  23297397.712    23297399.161    14213197.925 9 -39501404.390 9
 86  6 20  4 22 35.0800000  0  3G12G13G 7
  22187268.764    22187270.167    48165172.332 9 -59328683.158 8
  22648680.169    22648682.333    76587366.872 9 -81509961.306 9
  23297596.810    23297598.298    14214247.894 9 -39500586.239 9
 86  6 20  4 22 41.0800000  0  3G12G13G 7
  22190554.802    22190554.016    48182437.976 9 -59315229.410 9
  22650612.873    22650615.429    76597525.251 9 -81502045.698 9
  23297800.784    23297802.229    14215319.830 9 -39499750.967 8
 86  6 20  4 22 47.0800000  0  3G12G13G 7
  22193841.814    22193842.379    48199718.795 9 -59301763.832 8
  22652546.225    22652548.391    76607684.488 9 -81494129.401 9
  23298008.655    23298010.386    14216411.793 9 -39498900.086 9
 86  6 20  4 22 53.0800000  0  3G12G13G 7
  22197133.979    22197134.335    48217014.942 9 -59288286.329 7
  22654479.307    22654480.923    76617844.680 9 -81486212.359 8
  23298220.881    23298222.192    14217525.023 9 -39498032.636 8
 86  6 20  4 22 59.0800000  0  3G12G13G 7
  22200427.576    22200428.409    48234326.226 9 -59274797.020 9
  22656413.319    22656415.097    76628005.762 9 -81478294.620 9
                  23298438.842                   -39497144.438 8
 86  6 20  4 23  5.0800000  0  3G12G13G 7
  22203725.152    22203725.926    48251652.652 9 -59261295.914 8
  22658347.450    22658348.174    76638167.714 9 -81470376.219 8
  23298661.240    23298663.406    14182191.244 9 -39496230.121 9
 86  6 20  4 23 11.0800000  0  3G12G13G 7
  22207024.051    22207025.131    48268994.343 9 -59247782.915 7
  22660280.760    22660281.831    76648330.537 9 -81462457.137 9
  23298891.759    23298892.151    14183402.280 9 -39495286.440 9
 86  6 20  4 23 17.0800000  0  3G12G13G 7
  22210327.922    22210328.861    48286351.100 9 -59234258.189 8
  22662216.272    22662216.121    76658494.134 9 -81454537.454 9
  23299128.428    23299129.124    14184649.234 9 -39494314.800 8
 86  6 20  4 23 23.0800000  0  3G12G13G 7
  22213633.107    22213633.745    48303723.033 9 -59220721.616 8
  22664150.194    22664150.064    76668658.657 9 -81446617.049 9
  23299371.770    23299373.400    14185927.919 9 -39493318.413 9
 86  6 20  4 23 29.0800000  0  3G12G13G 7
  22216939.761    22216942.443    48321109.832 8 -59207173.463 9
  22666085.411    22666084.467    76678823.954 8 -81438696.041 9
  23299621.140    23299620.983    14187233.786 9 -39492300.856 9
 86  6 20  4 23 35.0800000  0  3G12G13G 7
  22220252.202    22220255.197    48338511.775 9 -59193613.519 8
  22668018.827    22668019.089    76688990.166 9 -81430774.318 8
  23299874.181    23299874.743    14188563.793 9 -39491264.479 9
 86  6 20  4 23 41.0800000  0  3G12G13G 7
  22223566.905    22223569.811    48355928.678 9 -59180041.914 8
  22669953.719    22669953.272    76699157.255 8 -81422851.910 9
  23300131.911    23300130.970    14189915.403 9 -39490211.274 8
 86  6 20  4 23 47.0800000  0  3G12G13G 7
  22226884.945    22226886.264    48373360.506 9 -59166458.677 7
  22671888.930    22671887.940    76709325.171 9 -81414928.865 7
  23300391.935    23300393.593    14191287.180 9 -39489142.354 9
 86  6 20  4 23 53.0800000  0  3G12G13G 7
  22230204.939    22230207.522    48390807.264 9 -59152863.806 8
  22673823.847    22673823.488    76719493.908 9 -81407005.169 8
  23300657.303    23300657.684    14192680.514 9 -39488056.636 9
